| time (UTC) | temp F | wind direction | speed MPH | gust MPH | rain 1hr in | rain 24hr in | rain mn in | humidity % | barometer mb |
| 20260503032255 | 41 | 358 | 1.0 | 7.0 | 0.00 | 0.00 | 0.00 | 67 | 1014.3 |
| 20260503031621 | 0 | 355 | 3.0 | 9.0 | 0.00 | 0.00 | 0.00 | ||
| 20260503030657 | 0 | 357 | 5.0 | 4.0 | 0.00 | 0.00 | 0.00 | ||
| 20260503025909 | 0 | 357 | 3.0 | 6.0 | 0.00 | 0.00 | 0.00 | ||
| 20260503025010 | 0 | 356 | 4.0 | 8.0 | 0.00 | 0.00 | 0.00 | ||
| 20260503024220 | 41 | 356 | 5.0 | 4.0 | 0.00 | 0.00 | 0.00 | 64 | 1014.5 |
| 20260503023432 | 0 | 359 | 2.0 | 2.0 | 0.00 | 0.00 | 0.00 | ||
| 20260503022640 | 42 | 357 | 2.0 | 8.0 | 0.00 | 0.00 | 0.00 | 62 | 1014.6 |
| 20260503021959 | 42 | 358 | 4.0 | 8.0 | 0.00 | 0.00 | 0.00 | 60 | 1014.6 |
| 20260503021320 | 42 | 357 | 5.0 | 4.0 | 0.00 | 0.00 | 0.00 | 59 | 1014.7 |
| 20260503020532 | 0 | 356 | 8.0 | 7.0 | 0.00 | 0.00 | 0.00 | ||
| 20260503015711 | 42 | 356 | 2.0 | 8.0 | 0.00 | 0.00 | 0.00 | 54 | 1014.7 |
| 20260503015029 | 42 | 358 | 3.0 | 8.0 | 0.00 | 0.00 | 0.00 | 55 | 1014.7 |
| 20260503014351 | 0 | 358 | 4.0 | 7.0 | 0.00 | 0.00 | 0.00 | ||
| 20260503013448 | 42 | 357 | 1.0 | 8.0 | 0.00 | 0.00 | 0.00 | 55 | 1014.7 |
| 20260503012808 | 42 | 357 | 2.0 | 7.0 | 0.00 | 0.00 | 0.00 | 55 | 1014.8 |
| 20260503012128 | 42 | 358 | 1.0 | 9.0 | 0.00 | 0.00 | 0.00 | 54 | 1014.7 |
| 20260503011447 | 42 | 356 | 5.0 | 9.0 | 0.00 | 0.00 | 0.00 | 56 | 1014.7 |
| 20260503010808 | 0 | 357 | 7.0 | 2.0 | 0.00 | 0.00 | 0.00 | ||
| 20260503005756 | 42 | 356 | 5.0 | 10.0 | 0.00 | 0.00 | 0.00 | 56 | 1014.6 |
| 20260503005116 | 0 | 357 | 7.0 | 6.0 | 0.00 | 0.00 | 0.00 | ||
| 20260503004101 | 42 | 356 | 7.0 | 11.0 | 0.00 | 0.00 | 0.00 | 61 | 1014.5 |
| 20260503003423 | 42 | 357 | 4.0 | 11.0 | 0.00 | 0.00 | 0.00 | 59 | 1014.5 |
| 20260503002741 | 42 | 357 | 8.0 | 11.0 | 0.00 | 0.00 | 0.00 | 62 | 1014.4 |
| 20260503002102 | 0 | 356 | 7.0 | 7.0 | 0.00 | 0.00 | 0.00 | ||
| 20260503001313 | 42 | 357 | 6.0 | 10.0 | 0.00 | 0.00 | 0.00 | 59 | 1014.4 |
| 20260503000636 | 0 | 357 | 5.0 | 7.0 | 0.00 | 0.00 | 0.00 | ||
| 20260502235627 | 0 | 357 | 4.0 | 7.0 | 0.00 | 0.00 | 0.00 | ||
| 20260502234541 | 42 | 356 | 3.0 | 10.0 | 0.00 | 0.00 | 0.00 | 60 | 1014.3 |
| 20260502233912 | 0 | 357 | 6.0 | 7.0 | 0.00 | 0.00 | 0.00 | ||
| 20260502232852 | 0 | 356 | 6.0 | 7.0 | 0.00 | 0.00 | 0.00 | ||
| 20260502232116 | 0 | 356 | 5.0 | 8.0 | 0.00 | 0.00 | 0.00 | ||
| 20260502231300 | 42 | 358 | 4.0 | 7.0 | 0.00 | 0.00 | 0.00 | 58 | 1014.4 |
| 20260502230512 | 42 | 356 | 4.0 | 10.0 | 0.00 | 0.00 | 0.00 | 63 | 1014.3 |
| 20260502225837 | 42 | 357 | 6.0 | 10.0 | 0.00 | 0.00 | 0.00 | 61 | 1014.3 |
| 20260502225152 | 42 | 357 | 6.0 | 11.0 | 0.00 | 0.00 | 0.00 | 61 | 1014.3 |
| 20260502224512 | 42 | 356 | 5.0 | 10.0 | 0.00 | 0.00 | 0.00 | 62 | 1014.2 |
| 20260502223832 | 42 | 355 | 5.0 | 9.0 | 0.00 | 0.00 | 0.00 | 64 | 1014.3 |
| 20260502223154 | 0 | 357 | 6.0 | 7.0 | 0.00 | 0.00 | 0.00 | ||
| 20260502222405 | 0 | 357 | 7.0 | 3.0 | 0.00 | 0.00 | 0.00 | ||
| 20260502221504 | 0 | 357 | 5.0 | 7.0 | 0.00 | 0.00 | 0.00 | ||
| 20260502220713 | 42 | 357 | 7.0 | 12.0 | 0.00 | 0.00 | 0.00 | 63 | 1014.3 |
| 20260502220034 | 0 | 356 | 7.0 | 6.0 | 0.00 | 0.00 | 0.00 | ||
| 20260502215246 | 43 | 357 | 7.0 | 11.0 | 0.00 | 0.00 | 0.00 | 63 | 1014.3 |
| 20260502214605 | 42 | 357 | 7.0 | 12.0 | 0.00 | 0.00 | 0.00 | 62 | 1014.3 |
| 20260502213927 | 0 | 356 | 8.0 | 10.0 | 0.00 | 0.00 | 0.00 | ||
| 20260502213137 | 43 | 357 | 6.0 | 11.0 | 0.00 | 0.00 | 0.00 | 59 | 1014.2 |
| 20260502212455 | 42 | 356 | 7.0 | 15.0 | 0.00 | 0.00 | 0.00 | 60 | 1014.2 |
| 20260502211816 | 0 | 356 | 7.0 | 10.0 | 0.00 | 0.00 | 0.00 | ||
| 20260502211026 | 43 | 355 | 8.0 | 13.0 | 0.00 | 0.00 | 0.00 | 59 | 1014.1 |
| 20260502210346 | 42 | 356 | 8.0 | 12.0 | 0.00 | 0.00 | 0.00 | 58 | 1014.1 |
| 20260502205707 | 0 | 356 | 7.0 | 9.0 | 0.00 | 0.00 | 0.00 | ||
| 20260502204805 | 42 | 357 | 8.0 | 14.0 | 0.00 | 0.00 | 0.00 | 54 | 1014.2 |
| 20260502204126 | 0 | 357 | 10.0 | 10.0 | 0.00 | 0.00 | 0.00 | ||
| 20260502203337 | 42 | 356 | 7.0 | 16.0 | 0.00 | 0.00 | 0.00 | 55 | 1014.2 |
| 20260502202657 | 42 | 355 | 9.0 | 16.0 | 0.00 | 0.00 | 0.00 | 53 | 1014.1 |
| 20260502202018 | 0 | 357 | 9.0 | 9.0 | 0.00 | 0.00 | 0.00 | ||
| 20260502201230 | 43 | 356 | 7.0 | 15.0 | 0.00 | 0.00 | 0.00 | 56 | 1014.3 |
| 20260502200549 | 42 | 356 | 8.0 | 16.0 | 0.00 | 0.00 | 0.00 | 54 | 1014.4 |
| 20260502195911 | 43 | 355 | 8.0 | 8.0 | 0.00 | 0.00 | 0.00 | 53 | 1014.5 |
| 20260502195120 | 43 | 356 | 7.0 | 13.0 | 0.00 | 0.00 | 0.00 | 51 | 1014.5 |
| 20260502194441 | 0 | 357 | 6.0 | 9.0 | 0.00 | 0.00 | 0.00 | ||
| 20260502193654 | 0 | 356 | 8.0 | 8.0 | 0.00 | 0.00 | 0.00 | ||
| 20260502192902 | 43 | 356 | 9.0 | 15.0 | 0.00 | 0.00 | 0.00 | 50 | 1014.5 |
| 20260502192223 | 0 | 357 | 7.0 | 8.0 | 0.00 | 0.00 | 0.00 | ||
| 20260502191450 | 0 | 357 | 8.0 | 10.0 | 0.00 | 0.00 | 0.00 | ||
| 20260502190522 | 43 | 357 | 8.0 | 14.0 | 0.00 | 0.00 | 0.00 | 48 | 1014.6 |
| 20260502185842 | 44 | 356 | 5.0 | 11.0 | 0.00 | 0.00 | 0.00 | 47 | 1014.7 |
| 20260502185202 | 43 | 357 | 7.0 | 11.0 | 0.00 | 0.00 | 0.00 | 48 | 1014.7 |
| 20260502184521 | 43 | 357 | 8.0 | 14.0 | 0.00 | 0.00 | 0.00 | 52 | 1014.6 |
| 20260502183849 | 44 | 355 | 8.0 | 14.0 | 0.00 | 0.00 | 0.00 | 53 | 1014.7 |
| 20260502183202 | 43 | 356 | 8.0 | 14.0 | 0.00 | 0.00 | 0.00 | 53 | 1014.7 |
| 20260502182524 | 43 | 357 | 6.0 | 11.0 | 0.00 | 0.00 | 0.00 | 53 | 1014.6 |
| 20260502181843 | 0 | 354 | 7.0 | 8.0 | 0.00 | 0.00 | 0.00 | ||
| 20260502181050 | 42 | 358 | 9.0 | 6.0 | 0.00 | 0.00 | 0.00 | 57 | 1014.7 |
| 20260502180301 | 0 | 356 | 8.0 | 10.0 | 0.00 | 0.00 | 0.00 | ||
| 20260502170457 | 45 | 358 | 7.0 | 12.0 | 0.00 | 0.00 | 0.00 | 43 | 1014.4 |
| 20260502164345 | 44 | 358 | 7.0 | 13.0 | 0.00 | 0.00 | 0.00 | 41 | 1014.5 |
| 20260502163706 | 44 | 355 | 8.0 | 13.0 | 0.00 | 0.00 | 0.00 | 43 | 1014.6 |
| 20260502163026 | 43 | 358 | 7.0 | 11.0 | 0.00 | 0.00 | 0.00 | 41 | 1014.7 |
| 20260502162356 | 0 | 356 | 5.0 | 5.0 | 0.00 | 0.00 | 0.00 | ||
| 20260502161555 | 45 | 357 | 7.0 | 11.0 | 0.00 | 0.00 | 0.00 | 42 | 1014.7 |
| 20260502160914 | 44 | 356 | 7.0 | 11.0 | 0.00 | 0.00 | 0.00 | 43 | 1014.8 |
| 20260502160234 | 43 | 356 | 8.0 | 14.0 | 0.00 | 0.00 | 0.00 | 46 | 1014.7 |
| 20260502152236 | 0 | 357 | 7.0 | 9.0 | 0.00 | 0.00 | 0.00 | ||
| 20260502151448 | 44 | 357 | 4.0 | 10.0 | 0.00 | 0.00 | 0.00 | 49 | 1014.7 |
| 20260502150808 | 44 | 357 | 6.0 | 10.0 | 0.00 | 0.00 | 0.00 | 49 | 1014.7 |
| 20260502150127 | 43 | 356 | 5.0 | 10.0 | 0.00 | 0.00 | 0.00 | 49 | 1014.7 |
| 20260502130414 | 42 | 358 | 5.0 | 11.0 | 0.00 | 0.00 | 0.00 | 54 | 1015.3 |
| 20260502123411 | 41 | 355 | 6.0 | 10.0 | 0.00 | 0.00 | 0.00 | 50 | 1015.3 |
| 20260502122725 | 41 | 357 | 7.0 | 10.0 | 0.00 | 0.00 | 0.00 | 52 | 1015.3 |
| 20260502122041 | 0 | 354 | 5.0 | 4.0 | 0.00 | 0.00 | 0.00 | ||
| 20260502121142 | 40 | 358 | 4.0 | 9.0 | 0.00 | 0.00 | 0.00 | 53 | 1015.4 |
| 20260502120503 | 42 | 358 | 2.0 | 7.0 | 0.00 | 0.00 | 0.00 | 52 | 1015.2 |
| 20260502115823 | 0 | 357 | 4.0 | 7.0 | 0.00 | 0.00 | 0.00 | ||
| 20260502114917 | 41 | 359 | 4.0 | 7.0 | 0.00 | 0.00 | 0.00 | 54 | 1015.1 |
| 20260502114242 | 41 | 358 | 0.0 | 7.0 | 0.00 | 0.00 | 0.00 | 54 | 1015.1 |
| 20260502113556 | 40 | 357 | 3.0 | 6.0 | 0.00 | 0.00 | 0.00 | 55 | 1015.1 |
| 20260502112916 | 40 | 358 | 3.0 | 7.0 | 0.00 | 0.00 | 0.00 | 55 | 1015.1 |
| 20260502112236 | 40 | 358 | 1.0 | 6.0 | 0.00 | 0.00 | 0.00 | 56 | 1015.1 |
| 20260502111557 | 38 | 357 | 4.0 | 6.0 | 0.00 | 0.00 | 0.00 | 56 | 1015.1 |
| 20260502110922 | 0 | 357 | 0.0 | 4.0 | 0.00 | 0.00 | 0.00 | ||
| 20260502105734 | 0 | 358 | 1.0 | 2.0 | 0.00 | 0.00 | 0.00 | ||
| 20260502104835 | 39 | 357 | 0.0 | 0.0 | 0.00 | 0.00 | 0.00 | 59 | 1014.9 |
| 20260502104155 | 38 | 357 | 0.0 | 2.0 | 0.00 | 0.00 | 0.00 | 60 | 1014.9 |
| 20260502103516 | 0 | 356 | 0.0 | 5.0 | 0.00 | 0.00 | 0.00 | ||
| 20260502102724 | 0 | 360 | 0.0 | 3.0 | 0.00 | 0.00 | 0.00 | ||
| 20260502101831 | 37 | 359 | 0.0 | 4.0 | 0.00 | 0.00 | 0.00 | 64 | 1014.6 |
| 20260502101147 | 0 | 356 | 1.0 | 4.0 | 0.00 | 0.00 | 0.00 | ||
| 20260502100129 | 36 | 357 | 0.0 | 0.0 | 0.00 | 0.00 | 0.00 | 68 | 1014.4 |
| 20260502091230 | 37 | 358 | 1.0 | 6.0 | 0.00 | 0.00 | 0.00 | 69 | 1014.0 |
| 20260502090441 | 36 | 359 | 2.0 | 8.0 | 0.00 | 0.00 | 0.00 | 68 | 1014.0 |
| 20260502080105 | 0 | 357 | 1.0 | 2.0 | 0.00 | 0.00 | 0.00 | ||
| 20260502071400 | 38 | 358 | 2.0 | 10.0 | 0.00 | 0.00 | 0.00 | 64 | 1013.3 |
| 20260502070721 | 0 | 356 | 4.0 | 3.0 | 0.00 | 0.00 | 0.00 | ||
| 20260502065752 | 39 | 357 | 6.0 | 13.0 | 0.00 | 0.00 | 0.00 | 61 | 1013.6 |
| 20260502065112 | 39 | 356 | 5.0 | 13.0 | 0.00 | 0.00 | 0.00 | 61 | 1013.6 |
| 20260502064432 | 0 | 357 | 4.0 | 2.0 | 0.00 | 0.00 | 0.00 | ||
| 20260502063643 | 0 | 358 | 7.0 | 3.0 | 0.00 | 0.00 | 0.00 | ||
| 20260502062851 | 40 | 356 | 8.0 | 10.0 | 0.00 | 0.00 | 0.00 | 59 | 1013.8 |
| 20260502061948 | 0 | 356 | 6.0 | 2.0 | 0.00 | 0.00 | 0.00 | ||
| 20260502061157 | 0 | 355 | 7.0 | 5.0 | 0.00 | 0.00 | 0.00 | ||
| 20260502060408 | 40 | 357 | 4.0 | 10.0 | 0.00 | 0.00 | 0.00 | 57 | 1013.9 |
| 20260502055727 | 39 | 358 | 4.0 | 10.0 | 0.00 | 0.00 | 0.00 | 57 | 1013.9 |
| 20260502055047 | 40 | 355 | 5.0 | 10.0 | 0.00 | 0.00 | 0.00 | 57 | 1013.9 |
| 20260502054408 | 40 | 358 | 4.0 | 10.0 | 0.00 | 0.00 | 0.00 | 57 | 1014.0 |
| 20260502053737 | 40 | 358 | 3.0 | 10.0 | 0.00 | 0.00 | 0.00 | 58 | 1014.0 |
| 20260502053047 | 40 | 357 | 3.0 | 10.0 | 0.00 | 0.00 | 0.00 | 59 | 1014.0 |
| 20260502052408 | 0 | 358 | 4.0 | 3.0 | 0.00 | 0.00 | 0.00 | ||
| 20260502051507 | 40 | 356 | 7.0 | 12.0 | 0.00 | 0.00 | 0.00 | 59 | 1013.9 |
| 20260502050827 | 40 | 356 | 5.0 | 10.0 | 0.00 | 0.00 | 0.00 | 57 | 1013.9 |
| 20260502050148 | 0 | 356 | 5.0 | 7.0 | 0.00 | 0.00 | 0.00 | ||
| 20260502045250 | 41 | 356 | 7.0 | 12.0 | 0.00 | 0.00 | 0.00 | 57 | 1013.7 |
| 20260502044611 | 0 | 356 | 5.0 | 5.0 | 0.00 | 0.00 | 0.00 | ||
| 20260502043820 | 42 | 357 | 7.0 | 12.0 | 0.00 | 0.00 | 0.00 | 52 | 1013.5 |
| 20260502043138 | 42 | 355 | 7.0 | 11.0 | 0.00 | 0.00 | 0.00 | 53 | 1013.5 |
| 20260502042458 | 42 | 355 | 4.0 | 10.0 | 0.00 | 0.00 | 0.00 | 53 | 1013.3 |
| 20260502041819 | 0 | 357 | 4.0 | 4.0 | 0.00 | 0.00 | 0.00 | ||
| 20260502041028 | 43 | 357 | 3.0 | 9.0 | 0.00 | 0.00 | 0.00 | 56 | 1013.2 |
| 20260502040348 | 43 | 360 | 2.0 | 8.0 | 0.00 | 0.00 | 0.00 | 57 | 1013.1 |
| 20260502035710 | 0 | 359 | 0.0 | 7.0 | 0.00 | 0.00 | 0.00 | ||
| 20260502034916 | 43 | 357 | 4.0 | 8.0 | 0.00 | 0.00 | 0.00 | 57 | 1013.1 |
| 20260502034236 | 44 | 357 | 2.0 | 6.0 | 0.00 | 0.00 | 0.00 | 53 | 1013.1 |
| 20260502033557 | 0 | 357 | 4.0 | 3.0 | 0.00 | 0.00 | 0.00 | ||
| 20260502032754 | 0 | 358 | 3.0 | 4.0 | 0.00 | 0.00 | 0.00 |